Voltar ao catálogo

STARLINK-32562

AtivoComunicaçõesVLEO
NORAD 62168·PAYLOAD·🇺🇸 United States

Lançado Nov 30, 2024 de Vandenberg Space Force Base

Loading…

Próximas Passagens (próximas 24 horas)

TLE

AtualizadoSource: CelesTrak SupGP

Época: Sep 15, 2026, 03:40 UTC

1 62168C 24225F   26258.15326389 -.00004316  00000+0 -36177-3 0  2588
2 62168  70.0014  46.7502 0002762 262.3482 136.1880 14.98324858    15

Acompanhe STARLINK-32562 em tempo real com AllMySat

Download on the App Store